TimePST,TemperatureF,Dew PointF,Humidity,Sea Level PressureIn,VisibilityMPH,Wind Direction,Wind SpeedMPH,Gust SpeedMPH,PrecipitationIn,Events,Conditions,WindDirDegrees,DateUTC
12:56 AM,37.0,30.0,76,30.25,10.0,Calm,Calm,-,N/A,,Clear,0,2013-11-14 08:56:00
1:56 AM,37.0,30.0,76,30.23,9.0,Calm,Calm,-,N/A,,Clear,0,2013-11-14 09:56:00
2:56 AM,36.0,28.9,76,30.21,10.0,Calm,Calm,-,N/A,,Clear,0,2013-11-14 10:56:00
3:56 AM,36.0,28.9,76,30.19,10.0,ENE,3.5,-,N/A,,Clear,70,2013-11-14 11:56:00
4:56 AM,35.1,28.0,76,30.19,10.0,ENE,3.5,-,N/A,,Clear,60,2013-11-14 12:56:00
5:56 AM,45.0,28.0,52,30.19,10.0,Variable,3.5,-,N/A,,Clear,0,2013-11-14 13:56:00
6:56 AM,37.9,28.0,68,30.20,10.0,Variable,3.5,-,N/A,,Clear,0,2013-11-14 14:56:00
7:56 AM,37.9,28.0,68,30.19,10.0,ENE,3.5,-,N/A,,Clear,60,2013-11-14 15:56:00
8:56 AM,50.0,28.9,44,30.17,10.0,Variable,4.6,-,N/A,,Clear,0,2013-11-14 16:56:00
9:56 AM,53.1,30.0,41,30.17,10.0,NW,6.9,-,N/A,,Clear,310,2013-11-14 17:56:00
10:56 AM,60.1,28.0,30,30.12,10.0,Variable,5.8,-,N/A,,Clear,0,2013-11-14 18:56:00
11:56 AM,62.1,26.1,25,30.09,10.0,Variable,4.6,-,N/A,,Clear,0,2013-11-14 19:56:00
12:56 PM,63.0,25.0,24,30.06,10.0,West,8.1,-,N/A,,Clear,280,2013-11-14 20:56:00
1:56 PM,60.1,28.0,30,30.04,10.0,WNW,9.2,-,N/A,,Scattered Clouds,300,2013-11-14 21:56:00
2:56 PM,57.0,28.0,33,30.05,10.0,NNW,11.5,20.7,N/A,,Overcast,340,2013-11-14 22:56:00
3:56 PM,52.0,28.0,40,30.07,10.0,NNW,9.2,21.9,N/A,,Mostly Cloudy,340,2013-11-14 23:56:00
4:56 PM,48.0,30.0,50,30.06,10.0,Variable,5.8,-,N/A,,Partly Cloudy,0,2013-11-15 00:56:00
5:56 PM,46.0,32.0,58,30.05,10.0,North,9.2,19.6,N/A,,Partly Cloudy,350,2013-11-15 01:56:00
6:56 PM,46.0,30.0,54,30.05,10.0,NW,11.5,23.0,N/A,,Mostly Cloudy,320,2013-11-15 02:56:00
7:09 PM,45.0,30.0,56,29.98,10.0,NNW,8.1,20.7,N/A,,Scattered Clouds,330,2013-11-15 03:09:00
7:56 PM,43.0,30.9,62,30.05,10.0,North,10.4,21.9,0.00,,Overcast,350,2013-11-15 03:56:00
8:56 PM,41.0,30.9,67,30.02,10.0,Variable,5.8,18.4,0.00,,Clear,0,2013-11-15 04:56:00
9:56 PM,42.1,30.0,62,30.01,10.0,NW,8.1,-,N/A,,Partly Cloudy,310,2013-11-15 05:56:00
10:56 PM,39.9,28.9,65,30.00,10.0,NW,8.1,17.3,N/A,,Partly Cloudy,320,2013-11-15 06:56:00
11:56 PM,39.0,27.0,62,29.99,10.0,North,-9999.0,-,N/A,,Clear,0,2013-11-15 07:56:00